Year,Month,Day,Hour,Minute,Value (Times are PST for temperature in C)
2019,04,02,00,00,8.70
2019,04,02,00,01,8.70
2019,04,02,00,02,8.70
2019,04,02,00,03,8.70
2019,04,02,00,04,8.70
2019,04,02,00,05,8.70
2019,04,02,00,06,8.70
2019,04,02,00,07,8.70
2019,04,02,00,08,8.60
2019,04,02,00,09,8.60
2019,04,02,00,10,8.60
2019,04,02,00,11,8.60
2019,04,02,00,12,8.50
2019,04,02,00,13,8.50
2019,04,02,00,14,8.50
2019,04,02,00,15,8.50
2019,04,02,00,16,8.50
2019,04,02,00,17,8.50
2019,04,02,00,18,8.50
2019,04,02,00,19,8.40
2019,04,02,00,20,8.40
2019,04,02,00,21,8.40
2019,04,02,00,22,8.40
2019,04,02,00,23,8.40
2019,04,02,00,24,8.40
2019,04,02,00,25,8.40
2019,04,02,00,26,8.40
2019,04,02,00,27,8.40
2019,04,02,00,28,8.40
2019,04,02,00,29,8.30
2019,04,02,00,30,8.30
2019,04,02,00,31,8.30
2019,04,02,00,32,8.20
2019,04,02,00,33,8.20
2019,04,02,00,34,8.20
2019,04,02,00,35,8.20
2019,04,02,00,36,8.10
2019,04,02,00,37,8.10
2019,04,02,00,38,8.10
2019,04,02,00,39,8.00
2019,04,02,00,40,8.00
2019,04,02,00,41,8.00
2019,04,02,00,42,8.00
2019,04,02,00,43,8.10
2019,04,02,00,44,8.10
2019,04,02,00,45,8.10
2019,04,02,00,46,8.20
2019,04,02,00,47,8.20
2019,04,02,00,48,8.20
2019,04,02,00,49,8.20
2019,04,02,00,50,8.20
2019,04,02,00,51,8.20
2019,04,02,00,52,8.20
2019,04,02,00,53,8.20
2019,04,02,00,54,8.20
2019,04,02,00,55,8.20
2019,04,02,00,56,8.20
2019,04,02,00,57,8.20
2019,04,02,00,58,8.20
2019,04,02,00,59,8.20
2019,04,02,01,00,8.20
2019,04,02,01,01,8.20
2019,04,02,01,02,8.20
2019,04,02,01,03,8.10
2019,04,02,01,04,8.10
2019,04,02,01,05,8.10
2019,04,02,01,06,8.10
2019,04,02,01,07,8.00
2019,04,02,01,08,8.00
2019,04,02,01,09,8.00
2019,04,02,01,10,8.00
2019,04,02,01,11,7.90
2019,04,02,01,12,7.90
2019,04,02,01,13,7.90
2019,04,02,01,14,7.90
2019,04,02,01,15,7.80
2019,04,02,01,16,7.80
2019,04,02,01,17,7.80
2019,04,02,01,18,7.80
2019,04,02,01,19,7.80
2019,04,02,01,20,7.70
2019,04,02,01,21,7.70
2019,04,02,01,22,7.60
2019,04,02,01,23,7.60
2019,04,02,01,24,7.50
2019,04,02,01,25,7.40
2019,04,02,01,26,7.40
2019,04,02,01,27,7.40
2019,04,02,01,28,7.30
2019,04,02,01,29,7.30
2019,04,02,01,30,7.30
2019,04,02,01,31,7.30
2019,04,02,01,32,7.30
2019,04,02,01,33,7.30
2019,04,02,01,34,7.30
2019,04,02,01,35,7.30
2019,04,02,01,36,7.30
2019,04,02,01,37,7.30
2019,04,02,01,38,7.30
2019,04,02,01,39,7.30
2019,04,02,01,40,7.30
2019,04,02,01,41,7.30
2019,04,02,01,42,7.30
2019,04,02,01,43,7.30
2019,04,02,01,44,7.30
2019,04,02,01,45,7.30
2019,04,02,01,46,7.30
2019,04,02,01,47,7.40
2019,04,02,01,48,7.40
2019,04,02,01,49,7.50
2019,04,02,01,50,7.50
2019,04,02,01,51,7.40
2019,04,02,01,52,7.40
2019,04,02,01,53,7.40
2019,04,02,01,54,7.30
2019,04,02,01,55,7.30
2019,04,02,01,56,7.30
2019,04,02,01,57,7.30
2019,04,02,01,58,7.20
2019,04,02,01,59,7.20
2019,04,02,02,00,7.20
2019,04,02,02,01,7.20
2019,04,02,02,02,7.10
2019,04,02,02,03,7.10
2019,04,02,02,04,7.10
2019,04,02,02,05,7.10
2019,04,02,02,06,7.10
2019,04,02,02,07,7.10
2019,04,02,02,08,7.10
2019,04,02,02,09,7.20
2019,04,02,02,10,7.20
2019,04,02,02,11,7.20
2019,04,02,02,12,7.20
2019,04,02,02,13,7.10
2019,04,02,02,14,7.10
2019,04,02,02,15,7.10
2019,04,02,02,16,7.10
2019,04,02,02,17,7.10
2019,04,02,02,18,7.10
2019,04,02,02,19,7.00
2019,04,02,02,20,7.00
2019,04,02,02,21,7.00
2019,04,02,02,22,7.00
2019,04,02,02,23,7.00
2019,04,02,02,24,7.00
2019,04,02,02,25,7.10
2019,04,02,02,26,7.10
2019,04,02,02,27,7.10
2019,04,02,02,28,7.10
2019,04,02,02,29,7.10
2019,04,02,02,30,7.10
2019,04,02,02,31,7.00
2019,04,02,02,32,7.00
2019,04,02,02,33,7.00
2019,04,02,02,34,6.90
2019,04,02,02,35,7.00
2019,04,02,02,36,7.10
2019,04,02,02,37,7.30
2019,04,02,02,38,7.50
2019,04,02,02,39,7.60
2019,04,02,02,40,7.80
2019,04,02,02,41,7.90
2019,04,02,02,42,8.00
2019,04,02,02,43,8.10
2019,04,02,02,44,8.30
2019,04,02,02,45,8.40
2019,04,02,02,46,8.70
2019,04,02,02,47,9.00
2019,04,02,02,48,9.30
2019,04,02,02,49,9.60
2019,04,02,02,50,10.00
2019,04,02,02,51,10.20
2019,04,02,02,52,10.40
2019,04,02,02,53,10.70
2019,04,02,02,54,10.90
2019,04,02,02,55,11.10
2019,04,02,02,56,11.40
2019,04,02,02,57,11.60
2019,04,02,02,58,11.80
2019,04,02,02,59,11.90
2019,04,02,03,00,12.10
2019,04,02,03,01,12.30
2019,04,02,03,02,12.40
2019,04,02,03,03,12.50
2019,04,02,03,04,12.60
2019,04,02,03,05,12.70
2019,04,02,03,06,12.70
2019,04,02,03,07,12.80
2019,04,02,03,08,12.80
2019,04,02,03,09,12.90
2019,04,02,03,10,12.90
2019,04,02,03,11,13.00
2019,04,02,03,12,13.00
2019,04,02,03,13,13.10
2019,04,02,03,14,13.10
2019,04,02,03,15,13.20
2019,04,02,03,16,13.20
2019,04,02,03,17,13.20
2019,04,02,03,18,13.20
2019,04,02,03,19,13.20
2019,04,02,03,20,13.20
2019,04,02,03,21,13.30
2019,04,02,03,22,13.30
2019,04,02,03,23,13.30
2019,04,02,03,24,13.30
2019,04,02,03,25,13.30
2019,04,02,03,26,13.30
2019,04,02,03,27,13.30
2019,04,02,03,28,13.30
2019,04,02,03,29,13.30
2019,04,02,03,30,13.20
2019,04,02,03,31,13.20
2019,04,02,03,32,13.20
2019,04,02,03,33,13.20
2019,04,02,03,34,13.20
2019,04,02,03,35,13.20
2019,04,02,03,36,13.20
2019,04,02,03,37,13.20
2019,04,02,03,38,13.20
2019,04,02,03,39,13.20
2019,04,02,03,40,13.20
2019,04,02,03,41,13.20
2019,04,02,03,42,13.30
2019,04,02,03,43,13.30
2019,04,02,03,44,13.30
2019,04,02,03,45,13.30
2019,04,02,03,46,13.30
2019,04,02,03,47,13.30
2019,04,02,03,48,13.30
2019,04,02,03,49,13.20
2019,04,02,03,50,13.20
2019,04,02,03,51,13.20
2019,04,02,03,52,13.20
2019,04,02,03,53,13.20
2019,04,02,03,54,13.20
2019,04,02,03,55,13.20
2019,04,02,03,56,13.20
2019,04,02,03,57,13.20
2019,04,02,03,58,13.20
2019,04,02,03,59,13.20
2019,04,02,04,00,13.20
2019,04,02,04,01,13.20
2019,04,02,04,02,13.20
2019,04,02,04,03,13.20
2019,04,02,04,04,13.20
2019,04,02,04,05,13.20
2019,04,02,04,06,13.20
2019,04,02,04,07,13.30
2019,04,02,04,08,13.30
2019,04,02,04,09,13.30
2019,04,02,04,10,13.30
2019,04,02,04,11,13.30
2019,04,02,04,12,13.30
2019,04,02,04,13,13.30
2019,04,02,04,14,13.30
2019,04,02,04,15,13.30
2019,04,02,04,16,13.30
2019,04,02,04,17,13.30
2019,04,02,04,18,13.30
2019,04,02,04,19,13.30
2019,04,02,04,20,13.30
2019,04,02,04,21,13.30
2019,04,02,04,22,13.30
2019,04,02,04,23,13.30
2019,04,02,04,24,13.30
2019,04,02,04,25,13.30
2019,04,02,04,26,13.30
2019,04,02,04,27,13.30
2019,04,02,04,28,13.30
2019,04,02,04,29,13.30
2019,04,02,04,30,13.30
2019,04,02,04,31,13.30
2019,04,02,04,32,13.30
2019,04,02,04,33,13.30
2019,04,02,04,34,13.30
2019,04,02,04,35,13.30
2019,04,02,04,36,13.30
2019,04,02,04,37,13.30
2019,04,02,04,38,13.30
2019,04,02,04,39,13.30
2019,04,02,04,40,13.30
2019,04,02,04,41,13.30
2019,04,02,04,42,13.30
2019,04,02,04,43,13.30
2019,04,02,04,44,13.30
2019,04,02,04,45,13.30
2019,04,02,04,46,13.30
2019,04,02,04,47,13.30
2019,04,02,04,48,13.30
2019,04,02,04,49,13.30
2019,04,02,04,50,13.30
2019,04,02,04,51,13.30
2019,04,02,04,52,13.30
2019,04,02,04,53,13.30
2019,04,02,04,54,13.30
2019,04,02,04,55,13.30
2019,04,02,04,56,13.30
2019,04,02,04,57,13.30
2019,04,02,04,58,13.30
2019,04,02,04,59,13.30
2019,04,02,05,00,13.20
2019,04,02,05,01,13.20
2019,04,02,05,02,13.20
2019,04,02,05,03,13.20
2019,04,02,05,04,13.20
2019,04,02,05,05,13.20
2019,04,02,05,06,13.10
2019,04,02,05,07,13.10
2019,04,02,05,08,13.10
2019,04,02,05,09,13.10
2019,04,02,05,10,13.10
2019,04,02,05,11,13.10
2019,04,02,05,12,13.10
2019,04,02,05,13,13.10
2019,04,02,05,14,13.00
2019,04,02,05,15,13.00
2019,04,02,05,16,13.00
2019,04,02,05,17,13.00
2019,04,02,05,18,13.00
2019,04,02,05,19,13.00
2019,04,02,05,20,13.00
2019,04,02,05,21,13.00
2019,04,02,05,22,13.00
2019,04,02,05,23,13.00
2019,04,02,05,24,13.00
2019,04,02,05,25,13.00
2019,04,02,05,26,13.00
2019,04,02,05,27,13.00
2019,04,02,05,28,13.00
2019,04,02,05,29,13.00
2019,04,02,05,30,13.00
2019,04,02,05,31,13.10
2019,04,02,05,32,13.10
2019,04,02,05,33,13.10
2019,04,02,05,34,13.00
2019,04,02,05,35,13.00
2019,04,02,05,36,12.90
2019,04,02,05,37,12.90
2019,04,02,05,38,12.90
2019,04,02,05,39,12.90
2019,04,02,05,40,12.90
2019,04,02,05,41,12.90
2019,04,02,05,42,12.90
2019,04,02,05,43,12.80
2019,04,02,05,44,12.80
2019,04,02,05,45,12.80
2019,04,02,05,46,12.80
2019,04,02,05,47,12.80
2019,04,02,05,48,12.80
2019,04,02,05,49,12.80
2019,04,02,05,50,12.80
2019,04,02,05,51,12.80
2019,04,02,05,52,12.80
2019,04,02,05,53,12.80
2019,04,02,05,54,12.80
2019,04,02,05,55,12.80
2019,04,02,05,56,12.80
2019,04,02,05,57,12.80
2019,04,02,05,58,12.80
2019,04,02,05,59,12.80
2019,04,02,06,00,12.80
2019,04,02,06,01,12.80
2019,04,02,06,02,12.80
2019,04,02,06,03,12.80
2019,04,02,06,04,12.80
2019,04,02,06,05,12.90
2019,04,02,06,06,12.90
2019,04,02,06,07,12.80
2019,04,02,06,08,12.90
2019,04,02,06,09,12.90
2019,04,02,06,10,12.90
2019,04,02,06,11,12.90
2019,04,02,06,12,12.80
2019,04,02,06,13,12.80
2019,04,02,06,14,12.80
2019,04,02,06,15,12.80
2019,04,02,06,16,12.80
2019,04,02,06,17,12.80
2019,04,02,06,18,12.80
2019,04,02,06,19,12.80
2019,04,02,06,20,12.80
2019,04,02,06,21,12.80
2019,04,02,06,22,12.70
2019,04,02,06,23,12.70
2019,04,02,06,24,12.60
2019,04,02,06,25,12.50
2019,04,02,06,26,12.50
2019,04,02,06,27,12.40
2019,04,02,06,28,12.40
2019,04,02,06,29,12.40
2019,04,02,06,30,12.30
2019,04,02,06,31,12.30
2019,04,02,06,32,12.30
2019,04,02,06,33,12.30
2019,04,02,06,34,12.30
2019,04,02,06,35,12.30
2019,04,02,06,36,12.30
2019,04,02,06,37,12.30
2019,04,02,06,38,12.30
2019,04,02,06,39,12.30
2019,04,02,06,40,12.20
2019,04,02,06,41,12.20
2019,04,02,06,42,12.20
2019,04,02,06,43,12.20
2019,04,02,06,44,12.20
2019,04,02,06,45,12.20
2019,04,02,06,46,12.20
2019,04,02,06,47,12.20
2019,04,02,06,48,12.20
2019,04,02,06,49,12.20
2019,04,02,06,50,12.20
2019,04,02,06,51,12.20
2019,04,02,06,52,12.10
2019,04,02,06,53,12.10
2019,04,02,06,54,12.10
2019,04,02,06,55,12.00
2019,04,02,06,56,12.00
2019,04,02,06,57,11.90
2019,04,02,06,58,11.80
2019,04,02,06,59,11.60
2019,04,02,07,00,11.50
2019,04,02,07,01,11.30
2019,04,02,07,02,11.20
2019,04,02,07,03,11.10
2019,04,02,07,04,11.00
2019,04,02,07,05,10.90
2019,04,02,07,06,10.80
2019,04,02,07,07,10.80
2019,04,02,07,08,10.70
2019,04,02,07,09,10.70
2019,04,02,07,10,10.80
2019,04,02,07,11,10.90
2019,04,02,07,12,10.90
2019,04,02,07,13,10.90
2019,04,02,07,14,10.90
2019,04,02,07,15,10.90
2019,04,02,07,16,10.90
2019,04,02,07,17,10.90
2019,04,02,07,18,11.10
2019,04,02,07,19,11.20
2019,04,02,07,20,11.30
2019,04,02,07,21,11.40
2019,04,02,07,22,11.60
2019,04,02,07,23,11.70
2019,04,02,07,24,11.80
2019,04,02,07,25,11.90
2019,04,02,07,26,12.00
2019,04,02,07,27,12.10
2019,04,02,07,28,12.20
2019,04,02,07,29,12.30
2019,04,02,07,30,12.30
2019,04,02,07,31,12.40
2019,04,02,07,32,12.50
2019,04,02,07,33,12.50
2019,04,02,07,34,12.50
2019,04,02,07,35,12.50
2019,04,02,07,36,12.60
2019,04,02,07,37,12.60
2019,04,02,07,38,12.70
2019,04,02,07,39,12.70
2019,04,02,07,40,12.80
2019,04,02,07,41,12.80
2019,04,02,07,42,12.80
2019,04,02,07,43,12.80
2019,04,02,07,44,12.80
2019,04,02,07,45,12.80
2019,04,02,07,46,12.80
2019,04,02,07,47,12.80
2019,04,02,07,48,12.90
2019,04,02,07,49,12.90
2019,04,02,07,50,12.90
2019,04,02,07,51,12.90
2019,04,02,07,52,12.90
2019,04,02,07,53,12.90
2019,04,02,07,54,12.90
2019,04,02,07,55,13.00
2019,04,02,07,56,13.00
2019,04,02,07,57,13.00
2019,04,02,07,58,13.00
2019,04,02,07,59,13.00
2019,04,02,08,00,13.10
2019,04,02,08,01,13.10
2019,04,02,08,02,13.10
2019,04,02,08,03,13.10
2019,04,02,08,04,13.20
2019,04,02,08,05,13.20
2019,04,02,08,06,13.20
2019,04,02,08,07,13.30
2019,04,02,08,08,13.30
2019,04,02,08,09,13.30
2019,04,02,08,10,13.30
2019,04,02,08,11,13.30
2019,04,02,08,12,13.30
2019,04,02,08,13,13.30
2019,04,02,08,14,13.40
2019,04,02,08,15,13.40
2019,04,02,08,16,13.40
2019,04,02,08,17,13.50
2019,04,02,08,18,13.50
2019,04,02,08,19,13.50
2019,04,02,08,20,13.60
2019,04,02,08,21,13.60
2019,04,02,08,22,13.60
2019,04,02,08,23,13.70
2019,04,02,08,24,13.70
2019,04,02,08,25,13.70
2019,04,02,08,26,13.70
2019,04,02,08,27,13.80
2019,04,02,08,28,13.80
2019,04,02,08,29,13.80
2019,04,02,08,30,13.80
2019,04,02,08,31,13.80
2019,04,02,08,32,13.90
2019,04,02,08,33,13.90
2019,04,02,08,34,13.90
2019,04,02,08,35,13.90
2019,04,02,08,36,13.90
2019,04,02,08,37,13.90
2019,04,02,08,38,13.90
2019,04,02,08,39,14.00
2019,04,02,08,40,14.00
2019,04,02,08,41,14.00
2019,04,02,08,42,14.00
2019,04,02,08,43,14.10
2019,04,02,08,44,14.10
2019,04,02,08,45,14.10
2019,04,02,08,46,14.10
2019,04,02,08,47,14.10
2019,04,02,08,48,14.20
2019,04,02,08,49,14.20
2019,04,02,08,50,14.20
2019,04,02,08,51,14.20
2019,04,02,08,52,14.20
2019,04,02,08,53,14.20
2019,04,02,08,54,14.20
2019,04,02,08,55,14.20
2019,04,02,08,56,14.20
2019,04,02,08,57,14.20
2019,04,02,08,58,14.30
2019,04,02,08,59,14.30
2019,04,02,09,00,14.30
2019,04,02,09,01,14.30
2019,04,02,09,02,14.30
2019,04,02,09,03,14.30
2019,04,02,09,04,14.40
2019,04,02,09,05,14.40
2019,04,02,09,06,14.40
2019,04,02,09,07,14.40
2019,04,02,09,08,14.40
2019,04,02,09,09,14.40
2019,04,02,09,10,14.40
2019,04,02,09,11,14.50
2019,04,02,09,12,14.50
2019,04,02,09,13,14.50
2019,04,02,09,14,14.50
2019,04,02,09,15,14.50
2019,04,02,09,16,14.50
2019,04,02,09,17,14.60
2019,04,02,09,18,14.60
2019,04,02,09,19,14.60
2019,04,02,09,20,14.70
2019,04,02,09,21,14.70
2019,04,02,09,22,14.70
2019,04,02,09,23,14.70
2019,04,02,09,24,14.80
2019,04,02,09,25,14.80
2019,04,02,09,26,14.80
2019,04,02,09,27,14.80
2019,04,02,09,28,14.90
2019,04,02,09,29,15.00
2019,04,02,09,30,15.00
2019,04,02,09,31,15.10
2019,04,02,09,32,15.10
2019,04,02,09,33,15.10
2019,04,02,09,34,15.20
2019,04,02,09,35,15.20
2019,04,02,09,36,15.30
2019,04,02,09,37,15.30
2019,04,02,09,38,15.30
2019,04,02,09,39,15.40
2019,04,02,09,40,15.40
2019,04,02,09,41,15.30
2019,04,02,09,42,15.30
2019,04,02,09,43,15.30
2019,04,02,09,44,15.40
2019,04,02,09,45,15.50
2019,04,02,09,46,15.50
2019,04,02,09,47,15.50
2019,04,02,09,48,15.50
2019,04,02,09,49,15.50
2019,04,02,09,50,15.50
2019,04,02,09,51,15.60
2019,04,02,09,52,15.60
2019,04,02,09,53,15.70
2019,04,02,09,54,15.80
2019,04,02,09,55,15.80
2019,04,02,09,56,15.80
2019,04,02,09,57,15.80
2019,04,02,09,58,15.80
2019,04,02,09,59,15.80
2019,04,02,10,00,15.80
2019,04,02,10,01,15.90
2019,04,02,10,02,15.90
2019,04,02,10,03,15.80
2019,04,02,10,04,15.80
2019,04,02,10,05,15.80
2019,04,02,10,06,15.80
2019,04,02,10,07,15.80
2019,04,02,10,08,15.80
2019,04,02,10,09,15.80
2019,04,02,10,10,15.80
2019,04,02,10,11,15.90
2019,04,02,10,12,15.90
2019,04,02,10,13,15.90
2019,04,02,10,14,15.90
2019,04,02,10,15,15.90
2019,04,02,10,16,15.80
2019,04,02,10,17,15.80
2019,04,02,10,18,15.80
2019,04,02,10,19,15.80
2019,04,02,10,20,15.80
2019,04,02,10,21,15.80
2019,04,02,10,22,15.80
2019,04,02,10,23,15.80
2019,04,02,10,24,15.80
2019,04,02,10,25,15.80
2019,04,02,10,26,15.80
2019,04,02,10,27,15.80
2019,04,02,10,28,15.80
2019,04,02,10,29,15.90
2019,04,02,10,30,16.10
2019,04,02,10,31,16.10
2019,04,02,10,32,16.10
2019,04,02,10,33,16.10
2019,04,02,10,34,16.20
2019,04,02,10,35,16.20
2019,04,02,10,36,16.20
2019,04,02,10,37,16.20
2019,04,02,10,38,16.30
2019,04,02,10,39,16.30
2019,04,02,10,40,16.30
2019,04,02,10,41,16.40
2019,04,02,10,42,16.40
2019,04,02,10,43,16.40
2019,04,02,10,44,16.50
2019,04,02,10,45,16.60
2019,04,02,10,46,16.60
2019,04,02,10,47,16.70
2019,04,02,10,48,16.70
2019,04,02,10,49,16.70
2019,04,02,10,50,16.70
2019,04,02,10,51,16.70
2019,04,02,10,52,16.70
2019,04,02,10,53,16.70
2019,04,02,10,54,16.70
2019,04,02,10,55,16.70
2019,04,02,10,56,16.70
2019,04,02,10,57,16.70
2019,04,02,10,58,16.70
2019,04,02,10,59,16.60
2019,04,02,11,00,16.60
2019,04,02,11,01,16.60
2019,04,02,11,02,16.60
2019,04,02,11,03,16.60
2019,04,02,11,04,16.60
2019,04,02,11,05,16.70
2019,04,02,11,06,16.70
2019,04,02,11,07,16.70
2019,04,02,11,08,16.70
2019,04,02,11,09,16.70
2019,04,02,11,10,16.70
2019,04,02,11,11,16.80
2019,04,02,11,12,16.80
2019,04,02,11,13,16.80
2019,04,02,11,14,16.70
2019,04,02,11,15,16.70
2019,04,02,11,16,16.70
2019,04,02,11,17,16.70
2019,04,02,11,18,16.70
2019,04,02,11,19,16.80
2019,04,02,11,20,16.80
2019,04,02,11,21,16.90
2019,04,02,11,22,16.90
2019,04,02,11,23,16.90
2019,04,02,11,24,17.00
2019,04,02,11,25,17.00
2019,04,02,11,26,17.00
2019,04,02,11,27,17.00
2019,04,02,11,28,17.00
2019,04,02,11,29,17.00
2019,04,02,11,30,17.00
2019,04,02,11,31,17.00
2019,04,02,11,32,17.00
2019,04,02,11,33,17.00
2019,04,02,11,34,17.00
2019,04,02,11,35,17.00
2019,04,02,11,36,16.90
2019,04,02,11,37,16.90
2019,04,02,11,38,16.90
2019,04,02,11,39,17.00
2019,04,02,11,40,17.10
2019,04,02,11,41,17.20
2019,04,02,11,42,17.20
2019,04,02,11,43,17.30
2019,04,02,11,44,17.40
2019,04,02,11,45,17.50
2019,04,02,11,46,17.50
2019,04,02,11,47,17.50
2019,04,02,11,48,17.50
2019,04,02,11,49,17.40
2019,04,02,11,50,17.40
2019,04,02,11,51,17.40
2019,04,02,11,52,17.30
2019,04,02,11,53,17.20
2019,04,02,11,54,17.10
2019,04,02,11,55,17.00
2019,04,02,11,56,17.00
2019,04,02,11,57,17.00
2019,04,02,11,58,17.00
2019,04,02,11,59,17.00
2019,04,02,12,00,17.10
2019,04,02,12,01,17.10
2019,04,02,12,02,17.10
2019,04,02,12,03,17.10
2019,04,02,12,04,17.10
2019,04,02,12,05,17.20
2019,04,02,12,06,17.20
2019,04,02,12,07,17.20
2019,04,02,12,08,17.20
2019,04,02,12,09,17.10
2019,04,02,12,10,17.10
2019,04,02,12,11,17.20
2019,04,02,12,12,17.30
2019,04,02,12,13,17.30
2019,04,02,12,14,17.40
2019,04,02,12,15,17.50
2019,04,02,12,16,17.50
2019,04,02,12,17,17.50
2019,04,02,12,18,17.60
2019,04,02,12,19,17.70
2019,04,02,12,20,17.80
2019,04,02,12,21,17.90
2019,04,02,12,22,17.90
2019,04,02,12,23,18.00
2019,04,02,12,24,18.10
2019,04,02,12,25,18.20
2019,04,02,12,26,18.20
2019,04,02,12,27,18.20
2019,04,02,12,28,18.20
2019,04,02,12,29,18.20
2019,04,02,12,30,18.20
2019,04,02,12,31,18.20
2019,04,02,12,32,18.10
2019,04,02,12,33,18.10
2019,04,02,12,34,18.10
2019,04,02,12,35,18.10
2019,04,02,12,36,18.10
2019,04,02,12,37,18.20
2019,04,02,12,38,18.20
2019,04,02,12,39,18.30
2019,04,02,12,40,18.30
2019,04,02,12,41,18.30
2019,04,02,12,42,18.30
2019,04,02,12,43,18.30
2019,04,02,12,44,18.40
2019,04,02,12,45,18.40
2019,04,02,12,46,18.40
2019,04,02,12,47,18.40
2019,04,02,12,48,18.40
2019,04,02,12,49,18.40
2019,04,02,12,50,18.40
2019,04,02,12,51,18.40
2019,04,02,12,52,18.40
2019,04,02,12,53,18.50
2019,04,02,12,54,18.50
2019,04,02,12,55,18.50
2019,04,02,12,56,18.50
2019,04,02,12,57,18.50
2019,04,02,12,58,18.40
2019,04,02,12,59,18.40
2019,04,02,13,00,18.30
2019,04,02,13,01,18.30
2019,04,02,13,02,18.30
2019,04,02,13,03,18.40
2019,04,02,13,04,18.30
2019,04,02,13,05,18.20
2019,04,02,13,06,18.20
2019,04,02,13,07,18.20
2019,04,02,13,08,18.20
2019,04,02,13,09,18.40
2019,04,02,13,10,18.50
2019,04,02,13,11,18.50
2019,04,02,13,12,18.60
2019,04,02,13,13,18.60
2019,04,02,13,14,18.60
2019,04,02,13,15,18.60
2019,04,02,13,16,18.70
2019,04,02,13,17,18.90
2019,04,02,13,18,19.00
2019,04,02,13,19,19.10
2019,04,02,13,20,19.20
2019,04,02,13,21,19.20
2019,04,02,13,22,19.30
2019,04,02,13,23,19.30
2019,04,02,13,24,19.30
2019,04,02,13,25,19.30
2019,04,02,13,26,19.30
2019,04,02,13,27,19.30
2019,04,02,13,28,19.30
2019,04,02,13,29,19.20
2019,04,02,13,30,19.10
2019,04,02,13,31,19.10
2019,04,02,13,32,19.10
2019,04,02,13,33,19.00
2019,04,02,13,34,19.00
2019,04,02,13,35,19.10
2019,04,02,13,36,19.00
2019,04,02,13,37,18.90
2019,04,02,13,38,18.90
2019,04,02,13,39,19.00
2019,04,02,13,40,19.10
2019,04,02,13,41,19.10
2019,04,02,13,42,19.10
2019,04,02,13,43,19.10
2019,04,02,13,44,19.10
2019,04,02,13,45,19.10
2019,04,02,13,46,19.20
2019,04,02,13,47,19.20
2019,04,02,13,48,19.30
2019,04,02,13,49,19.30
2019,04,02,13,50,19.30
2019,04,02,13,51,19.30
2019,04,02,13,52,19.30
2019,04,02,13,53,19.30
2019,04,02,13,54,19.40
2019,04,02,13,55,19.40
2019,04,02,13,56,19.40
2019,04,02,13,57,19.40
2019,04,02,13,58,19.40
2019,04,02,13,59,19.30
2019,04,02,14,00,19.30
2019,04,02,14,01,19.30
2019,04,02,14,02,19.30
2019,04,02,14,03,19.30
2019,04,02,14,04,19.30
2019,04,02,14,05,19.30
2019,04,02,14,06,19.30
2019,04,02,14,07,19.30
2019,04,02,14,08,19.20
2019,04,02,14,09,19.30
2019,04,02,14,10,19.30
2019,04,02,14,11,19.30
2019,04,02,14,12,19.40
2019,04,02,14,13,19.40
2019,04,02,14,14,19.40
2019,04,02,14,15,19.30
2019,04,02,14,16,19.40
2019,04,02,14,17,19.40
2019,04,02,14,18,19.50
2019,04,02,14,19,19.60
2019,04,02,14,20,19.70
2019,04,02,14,21,19.70
2019,04,02,14,22,19.80
2019,04,02,14,23,19.70
2019,04,02,14,24,19.80
2019,04,02,14,25,19.80
2019,04,02,14,26,19.80
2019,04,02,14,27,19.80
2019,04,02,14,28,19.70
2019,04,02,14,29,19.70
2019,04,02,14,30,19.60
2019,04,02,14,31,19.70
2019,04,02,14,32,19.70
2019,04,02,14,33,19.60
2019,04,02,14,34,19.60
2019,04,02,14,35,19.60
2019,04,02,14,36,19.60
2019,04,02,14,37,19.60
2019,04,02,14,38,19.70
2019,04,02,14,39,19.70
2019,04,02,14,40,19.70
2019,04,02,14,41,19.70
2019,04,02,14,42,19.70
2019,04,02,14,43,19.70
2019,04,02,14,44,19.60
2019,04,02,14,45,19.50
2019,04,02,14,46,19.50
2019,04,02,14,47,19.40
2019,04,02,14,48,19.40
2019,04,02,14,49,19.50
2019,04,02,14,50,19.60
2019,04,02,14,51,19.60
2019,04,02,14,52,19.70
2019,04,02,14,53,19.70
2019,04,02,14,54,19.70
2019,04,02,14,55,19.70
2019,04,02,14,56,19.60
2019,04,02,14,57,19.60
2019,04,02,14,58,19.60
2019,04,02,14,59,19.70
2019,04,02,15,00,19.70
2019,04,02,15,01,19.80
2019,04,02,15,02,19.80
2019,04,02,15,03,19.80
2019,04,02,15,04,19.80
2019,04,02,15,05,19.80
2019,04,02,15,06,19.80
2019,04,02,15,07,19.70
2019,04,02,15,08,19.70
2019,04,02,15,09,19.70
2019,04,02,15,10,19.60
2019,04,02,15,11,19.50
2019,04,02,15,12,19.50
2019,04,02,15,13,19.50
2019,04,02,15,14,19.50
2019,04,02,15,15,19.50
2019,04,02,15,16,19.50
2019,04,02,15,17,19.40
2019,04,02,15,18,19.40
2019,04,02,15,19,19.40
2019,04,02,15,20,19.30
2019,04,02,15,21,19.30
2019,04,02,15,22,19.20
2019,04,02,15,23,19.20
2019,04,02,15,24,19.20
2019,04,02,15,25,19.10
2019,04,02,15,26,19.10
2019,04,02,15,27,19.10
2019,04,02,15,28,19.10
2019,04,02,15,29,19.10
2019,04,02,15,30,19.10
2019,04,02,15,31,19.10
2019,04,02,15,32,19.10
2019,04,02,15,33,19.10
2019,04,02,15,34,19.10
2019,04,02,15,35,19.10
2019,04,02,15,36,19.10
2019,04,02,15,37,19.10
2019,04,02,15,38,19.10
2019,04,02,15,39,19.10
2019,04,02,15,40,19.10
2019,04,02,15,41,19.10
2019,04,02,15,42,19.10
2019,04,02,15,43,19.10
2019,04,02,15,44,19.10
2019,04,02,15,45,19.10
2019,04,02,15,46,19.10
2019,04,02,15,47,19.20
2019,04,02,15,48,19.20
2019,04,02,15,49,19.20
2019,04,02,15,50,19.20
2019,04,02,15,51,19.10
2019,04,02,15,52,19.10
2019,04,02,15,53,19.10
2019,04,02,15,54,19.10
2019,04,02,15,55,19.10
2019,04,02,15,56,19.00
2019,04,02,15,57,18.90
2019,04,02,15,58,18.90
2019,04,02,15,59,18.90
2019,04,02,16,00,18.90
2019,04,02,16,01,18.90
2019,04,02,16,02,18.90
2019,04,02,16,03,18.90
2019,04,02,16,04,18.90
2019,04,02,16,05,18.90
2019,04,02,16,06,18.90
2019,04,02,16,07,18.90
2019,04,02,16,08,18.90
2019,04,02,16,09,18.90
2019,04,02,16,10,18.90
2019,04,02,16,11,18.90
2019,04,02,16,12,18.90
2019,04,02,16,13,18.90
2019,04,02,16,14,19.10
2019,04,02,16,15,19.10
2019,04,02,16,16,19.10
2019,04,02,16,17,19.10
2019,04,02,16,18,19.10
2019,04,02,16,19,19.10
2019,04,02,16,20,19.10
2019,04,02,16,21,19.10
2019,04,02,16,22,19.10
2019,04,02,16,23,19.10
2019,04,02,16,24,19.10
2019,04,02,16,25,19.10
2019,04,02,16,26,19.10
2019,04,02,16,27,19.10
2019,04,02,16,28,19.10
2019,04,02,16,29,19.10
2019,04,02,16,30,19.10
2019,04,02,16,31,19.10
2019,04,02,16,32,19.10
2019,04,02,16,33,19.10
2019,04,02,16,34,19.10
2019,04,02,16,35,19.10
2019,04,02,16,36,19.00
2019,04,02,16,37,18.90
2019,04,02,16,38,18.90
2019,04,02,16,39,18.90
2019,04,02,16,40,18.90
2019,04,02,16,41,18.90
2019,04,02,16,42,18.80
2019,04,02,16,43,18.80
2019,04,02,16,44,18.80
2019,04,02,16,45,18.80
2019,04,02,16,46,18.90
2019,04,02,16,47,18.90
2019,04,02,16,48,18.90
2019,04,02,16,49,18.90
2019,04,02,16,50,18.90
2019,04,02,16,51,18.90
2019,04,02,16,52,18.90
2019,04,02,16,53,18.90
2019,04,02,16,54,18.90
2019,04,02,16,55,18.90
2019,04,02,16,56,18.90
2019,04,02,16,57,18.90
2019,04,02,16,58,18.90
2019,04,02,16,59,18.90
2019,04,02,17,00,18.80
2019,04,02,17,01,18.80
2019,04,02,17,02,18.70
2019,04,02,17,03,18.70
2019,04,02,17,04,18.70
2019,04,02,17,05,18.60
2019,04,02,17,06,18.60
2019,04,02,17,07,18.50
2019,04,02,17,08,18.50
2019,04,02,17,09,18.40
2019,04,02,17,10,18.40
2019,04,02,17,11,18.40
2019,04,02,17,12,18.40
2019,04,02,17,13,18.40
2019,04,02,17,14,18.50
2019,04,02,17,15,18.50
2019,04,02,17,16,18.50
2019,04,02,17,17,18.50
2019,04,02,17,18,18.50
2019,04,02,17,19,18.50
2019,04,02,17,20,18.40
2019,04,02,17,21,18.30
2019,04,02,17,22,18.20
2019,04,02,17,23,18.10
2019,04,02,17,24,18.10
2019,04,02,17,25,18.10
2019,04,02,17,26,18.10